This demonstration page uses our WeatherBlox Daily Observations layout. Learn more.

Left ArrowRight Arrow

53.62937, 11.41316

Hourly Observations for August 6, 2021

Temp ( °F °C ) Dew Point ( °F °C ) Humidity (%) Winds ( mph kmh ) Pressure ( in mb ) Visibility ( mi km ) Precip ( " mm )
7:20 am 07:20 Mostly Sunny 61 16 57 14 88 88 ESE 3 6 29.68 1005 7 11 N/A
7:50 am 07:50 Mostly Sunny 63 17 57 14 83 83 ESE 5 7 29.68 1005 7 11 N/A
8:20 am 08:20 Mostly Sunny 64 18 57 14 78 78 ESE 6 9 29.68 1005 7 11 N/A
8:50 am 08:50 Mostly Sunny 64 18 55 13 73 73 SE 8 13 29.68 1005 7 11 N/A
9:20 am 09:20 Mostly Sunny 66 19 55 13 68 68 SE 6 9 29.68 1005 7 11 N/A
9:50 am 09:50 Mostly Sunny 68 20 55 13 64 64 SE 7 11 29.68 1005 7 11 N/A
10:20 am 10:20 Mostly Sunny 70 21 57 14 64 64 SE 7 11 29.68 1005 7 11 N/A
10:50 am 10:50 Mostly Sunny 70 21 55 13 60 60 VRB 8 13 29.68 1005 7 11 N/A
11:20 am 11:20 Mostly Sunny 72 22 55 13 57 57 SE 9 15 29.68 1005 30 48 N/A
11:50 am 11:50 Mostly Sunny 73 23 57 14 57 57 SSE 9 15 29.65 1004 30 48 N/A
12:20 pm 12:20 Mostly Sunny 73 23 55 13 53 53 SE 9 15 29.65 1004 30 48 N/A
12:50 pm 12:50 Partly Cloudy 75 24 57 14 54 54 SE 10 17 29.65 1004 30 48 N/A
1:20 pm 13:20 Partly Cloudy 75 24 57 14 54 54 SE 10 17 29.65 1004 30 48 N/A
1:50 pm 13:50 Partly Cloudy 77 25 55 13 47 47 SE 9 15 29.62 1003 30 48 N/A
2:20 pm 14:20 Mostly Sunny 77 25 57 14 51 51 SE 8 13 29.62 1003 7 11 N/A
2:50 pm 14:50 Mostly Sunny 77 25 55 13 47 47 VRB 9 15 29.62 1003 7 11 N/A
3:20 pm 15:20 Mostly Sunny 79 26 55 13 45 45 SE 9 15 29.62 1003 7 11 N/A
3:50 pm 15:50 Mostly Sunny 79 26 55 13 45 45 SE 9 15 29.59 1002 7 11 N/A
4:20 pm 16:20 Mostly Sunny 77 25 54 12 44 44 SSE 9 15 29.59 1002 7 11 N/A
4:50 pm 16:50 Mostly Sunny 75 24 54 12 47 47 SSE 8 13 29.59 1002 7 11 N/A
5:20 pm 17:20 Mostly Sunny 75 24 54 12 47 47 SSE 7 11 29.59 1002 7 11 N/A
5:50 pm 17:50 Partly Cloudy with Light Showers 70 21 57 14 64 64 SSE 8 13 29.62 1003 30 48 N/A
6:20 pm 18:20 Mostly Cloudy with Thunderstorms 63 17 61 16 94 94 VRB 9 15 29.62 1003 6 9 N/A
6:50 pm 18:50 Mostly Cloudy with Light Rain 61 16 59 15 94 94 VRB 5 7 29.65 1004 30 48 N/A
7:20 pm 19:20 Mostly Cloudy with Light Rain 61 16 61 16 100 100 SSE 3 6 29.62 1003 30 48 N/A
7:50 pm 19:50 Mostly Sunny 61 16 61 16 100 100 VRB 2 4 29.62 1003 7 11 N/A
8:20 pm 20:20 Partly Cloudy with Light Rain 63 17 61 16 94 94 VRB 2 4 29.62 1003 30 48 N/A
8:50 pm 20:50 Mostly Sunny 63 17 61 16 94 94 VRB 2 4 29.62 1003 7 11 N/A
9:20 pm 21:20 Mostly Clear 63 17 63 17 100 100 VRB 2 4 29.65 1004 7 11 N/A
9:50 pm 21:50 Mostly Clear 63 17 63 17 100 100 VRB 1 2 29.65 1004 7 11 N/A

Powered by AerisWeather